Weather observations for the past three days for
Belleville, Scott AFB/MidAmerica Airport
Imperial (Metric)
Date Time (cdt) Wind (mph) Vis. (mi.) Weather Sky Cond. Temperature (ºF) Relative Humidity Wind Chill (°F) Heat Index (°F) Pressure Precipitation (in)
Air Dwpt 6 hour altimeter (in) sea level (mb) 1 hr 3 hr 6 hr
Max. Min.
02 22:55 Calm 10.00 Fair CLR 82.4 72.9 73% 88 29.95 1014.0
02 21:55 Calm 10.00 Fair CLR 82.9 72.5 71% 88 29.95 1014.0
02 20:55 S 5 10.00 Fair CLR 84 72.7 69% 90 29.94 1013.6
02 19:55 S 6 10.00 Fair CLR 86 73.2 66% 93 29.93 1013.4
02 18:55 S 8 10.00 Fair CLR 91.6 73.6 100.2 91.6 56% 101 29.93 1013.4
02 17:55 S 10 10.00 Fair CLR 96.3 71.4 45% 104 29.92 1013.0
02 16:55 S 10 10.00 Fair CLR 98.6 70 40% 106 29.93 1013.3
02 15:55 SW 9 10.00 Fair CLR 99.5 69.3 38% 106 29.94 1013.6
02 14:55 SW 8 10.00 Fair CLR 100 68.2 36% 106 29.96 1014.3
02 13:55 SW 10 10.00 Fair CLR 99 69.6 39% 106 29.98 1015.0
02 12:55 W 6 10.00 Fair CLR 97.2 70.2 97.5 74.1 42% 104 29.99 1015.3
02 11:55 SW 8 10.00 Fair CLR 96.6 73 47% 107 30.01 1016.0
02 10:55 W 12 10.00 Fair CLR 94.3 72.7 50% 103 30.03 1016.7
02 09:55 W 7 10.00 Fair CLR 90.1 75.2 62% 101 30.02 1016.4
02 08:55 W 8 10.00 Fair CLR 86.2 75.2 70% 95 30.03 1016.7
02 07:55 Calm 10.00 Fair CLR 79 76.6 93% 83 30.03 1016.7
02 06:55 S 3 10.00 Fair CLR 73.9 73.2 77.2 73.8 98% 30.02 1016.4
02 04:55 Calm 10.00 Fair CLR 74.3 73.6 98% 30 1015.7
02 03:55 Calm 10.00 Fair CLR 75 74.3 98% 73 29.99 1015.3
02 02:55 S 3 10.00 Fair CLR 75.2 74.3 97% 73 29.99 1015.3
02 01:55 S 3 10.00 Fair CLR 76.3 74.3 94% 76 29.99 1015.3
02 00:55 Calm 10.00 Fair CLR 77.4 73.8 90.5 77.4 89% 79 29.99 1015.3
01 23:55 Calm 10.00 Fair CLR 79.7 72.5 79% 83 29.99 1015.3
01 22:55 Calm 10.00 Fair CLR 80.8 71.6 74% 85 29.98 1015.0
01 21:55 Calm 10.00 Fair CLR 82.9 70.3 66% 87 29.98 1015.0
01 20:55 S 5 10.00 Fair CLR 83.8 70.7 65% 89 29.97 1014.7
01 19:55 S 6 10.00 Fair CLR 85.3 72.1 65% 91 29.96 1014.4
01 18:55 S 8 10.00 Fair CLR 90.7 72.7 99.9 90.7 56% 99 29.96 1014.4
01 17:55 S 9 10.00 Fair CLR 95.7 72.1 47% 105 29.96 1014.4
01 16:55 S 9 10.00 Fair CLR 98.2 66.6 36% 102 29.96 1014.3
01 15:55 S 9 10.00 Fair CLR 98.4 69.1 39% 105 29.97 1014.7
01 14:55 S 3 10.00 Fair CLR 99.1 68.2 37% 105 29.98 1015.0
01 13:55 SW 6 10.00 Fair CLR 98.1 70.9 42% 106 30 1015.7
01 12:55 W 6 10.00 Fair CLR 96.3 72.7 96.3 71.6 47% 106 30.02 1016.4
01 11:55 W 6 10.00 Fair CLR 94.8 72.5 49% 104 30.03 1016.7
01 10:55 W 8 10.00 Fair CLR 92.7 74.1 55% 103 30.04 1017.0
01 09:55 W 9 10.00 Fair CLR 87.4 74.1 65% 96 30.04 1017.1
01 08:55 SW 5 10.00 Fair CLR 83.1 75.4 78% 91 30.05 1017.4
01 07:55 S 5 10.00 Fair CLR 77.2 75.6 95% 78 30.05 1017.5
01 06:55 Calm 10.00 Fair CLR 71.6 70.7 76.5 71.4 97% 30.03 1016.8
01 05:55 Calm 9.00 Fair CLR 72.5 71.8 98% 30.02 1016.4
01 04:55 S 3 10.00 Fair CLR 72.5 71.6 97% 30.01 1016.0
01 03:55 S 5 10.00 Fair CLR 72.9 72.1 98% 30 1015.7
01 02:55 S 3 10.00 Fair CLR 74.3 73.6 98% 30 1015.7
01 01:55 S 3 10.00 Fair CLR 75.9 74.3 95% 75 29.99 1015.3
01 00:55 Calm 10.00 Fair CLR 76.3 72.7 89.2 76.3 89% 77 30 1015.7
31 23:55 SW 6 10.00 Fair CLR 79.3 72.5 80% 83 29.99 1015.3
31 22:55 SW 6 10.00 Fair CLR 79.5 72 78% 83 29.99 1015.4
31 21:55 SW 7 10.00 Fair CLR 80.1 72.1 77% 84 29.99 1015.4
31 20:55 S 3 10.00 Fair CLR 82.4 72.9 73% 88 29.98 1015.1
31 19:55 S 6 10.00 Fair CLR 85.1 72.3 66% 91 29.96 1014.4
31 17:55 S 12 10.00 Fair CLR 94.3 72.1 49% 103 29.96 1014.4
31 16:55 S 12 10.00 Fair CLR 96.8 70.5 43% 104 29.96 1014.4
31 15:55 SW 10 10.00 Fair CLR 97.7 67.6 38% 103 29.96 1014.4
31 14:55 SW 8 10.00 Fair CLR 98.2 68.2 38% 104 29.97 1014.7
31 13:55 SW 13 10.00 Fair CLR 96.8 67.6 39% 102 29.99 1015.4
31 12:55 SW 10 10.00 A Few Clouds FEW200 95.5 70 95.5 66.6 44% 102 30.02 1016.4
31 10:55 SW 13 10.00 A Few Clouds FEW200 89.1 68.5 51% 93 30.04 1017.1
31 09:55 SW 12 10.00 A Few Clouds FEW200 87.1 67.8 53% 90 30.04 1017.1
31 08:55 S 5 10.00 A Few Clouds FEW200 79.7 70.2 73% 83 30.04 1017.1
31 07:55 Calm 10.00 A Few Clouds FEW200 73.2 70 90% 30.03 1016.8
31 06:55 Calm 10.00 A Few Clouds FEW250 67.3 66.4 70.3 65.7 97% 30 1015.8
31 05:55 S 5 10.00 Fair CLR 66.4 65.5 97% 30 1015.8
31 04:55 Calm 10.00 Fair CLR 68.2 67.3 97% 30 1015.8
31 03:55 S 5 10.00 Fair CLR 68.5 67.6 97% 29.98 1015.1
31 02:55 S 3 10.00 Fair CLR 68.7 67.8 97% 29.98 1015.1
31 01:55 S 5 10.00 Fair CLR 68 67.1 97% 29.99 1015.4
31 00:55 Calm 10.00 Fair CLR 70 67.3 84.2 70 91% 30 1015.8
30 23:55 Calm 9.00 Fair CLR 71.1 68.5 92% 29.98 1015.1
Date Time (cdt) Wind (mph) Vis. (mi.) Weather Sky Cond. Air Dwpt Max. Min. Relative Humidity Wind Chill (°F) Heat Index (°F) altimeter (in) sea level (mb) 1 hr 3 hr 6 hr
6 hour
Temperature (ºF) Pressure Precipitation (in)